| time (UTC) | temp F | wind direction | speed MPH | gust MPH | rain 1hr in | rain 24hr in | rain mn in | humidity % | barometer mb |
| 20260503030952 | 37 | 272 | 0.0 | 0.0 | 0.00 | 0.00 | 0.00 | 71 | 1011.8 |
| 20260503030450 | 37 | 272 | 0.0 | 1.0 | 0.00 | 0.00 | 0.00 | 70 | 1011.9 |
| 20260503025952 | 38 | 281 | 0.0 | 1.0 | 0.00 | 0.00 | 0.00 | 70 | 1011.9 |
| 20260503025451 | 38 | 316 | 0.0 | 1.0 | 0.00 | 0.00 | 0.00 | 69 | 1012.0 |
| 20260503025226 | 38 | 309 | 0.0 | 1.0 | 0.00 | 0.00 | 0.00 | 68 | 1012.0 |
| 20260503024717 | 38 | 302 | 0.0 | 1.0 | 0.00 | 0.00 | 0.00 | 67 | 1012.1 |
| 20260503023949 | 38 | 316 | 0.0 | 1.0 | 0.00 | 0.00 | 0.00 | 67 | 1012.1 |
| 20260503023451 | 38 | 326 | 1.0 | 1.0 | 0.00 | 0.00 | 0.00 | 67 | 1012.1 |
| 20260503023223 | 38 | 350 | 0.0 | 2.0 | 0.00 | 0.00 | 0.00 | 67 | 1012.1 |
| 20260503022449 | 38 | 230 | 0.0 | 2.0 | 0.00 | 0.00 | 0.00 | 67 | 1012.0 |
| 20260503021948 | 38 | 202 | 0.0 | 4.0 | 0.00 | 0.00 | 0.00 | 67 | 1012.1 |
| 20260503021448 | 38 | 149 | 1.0 | 4.0 | 0.00 | 0.00 | 0.00 | 68 | 1012.0 |
| 20260503021220 | 38 | 195 | 0.0 | 2.0 | 0.00 | 0.00 | 0.00 | 69 | 1012.0 |
| 20260503015949 | 38 | 158 | 1.0 | 4.0 | 0.00 | 0.00 | 0.00 | 70 | 1012.0 |
| 20260503015448 | 38 | 186 | 2.0 | 4.0 | 0.00 | 0.00 | 0.00 | 70 | 1012.0 |
| 20260503014948 | 38 | 158 | 2.0 | 3.0 | 0.00 | 0.00 | 0.00 | 71 | 1011.9 |
| 20260503014447 | 38 | 137 | 2.0 | 3.0 | 0.00 | 0.00 | 0.00 | 71 | 1011.9 |
| 20260503013948 | 38 | 172 | 0.0 | 2.0 | 0.00 | 0.00 | 0.00 | 71 | 1011.9 |
| 20260503013447 | 39 | 166 | 0.0 | 2.0 | 0.00 | 0.00 | 0.00 | 70 | 1011.9 |
| 20260503012951 | 39 | 165 | 0.0 | 4.0 | 0.00 | 0.00 | 0.00 | 70 | 1011.9 |
| 20260503012448 | 39 | 166 | 0.0 | 4.0 | 0.00 | 0.00 | 0.00 | 71 | 1011.9 |
| 20260503012214 | 40 | 213 | 1.0 | 2.0 | 0.00 | 0.00 | 0.00 | 69 | 1011.8 |
| 20260503011558 | 40 | 213 | 0.0 | 2.0 | 0.00 | 0.00 | 0.00 | 69 | 1011.8 |
| 20260503011037 | 40 | 213 | 0.0 | 2.0 | 0.00 | 0.00 | 0.00 | 68 | 1011.8 |
| 20260503010445 | 40 | 213 | 1.0 | 1.0 | 0.00 | 0.00 | 0.00 | 67 | 1011.8 |
| 20260503005947 | 40 | 31 | 0.0 | 0.0 | 0.00 | 0.00 | 0.00 | 66 | 1011.8 |
| 20260503005448 | 41 | 31 | 0.0 | 0.0 | 0.00 | 0.00 | 0.00 | 65 | 1011.7 |
| 20260503004946 | 41 | 31 | 0.0 | 0.0 | 0.00 | 0.00 | 0.00 | 64 | 1011.6 |
| 20260503004447 | 41 | 37 | 0.0 | 0.0 | 0.00 | 0.00 | 0.00 | 63 | 1011.7 |
| 20260503003946 | 42 | 37 | 0.0 | 0.0 | 0.00 | 0.00 | 0.00 | 62 | 1011.7 |
| 20260503003444 | 42 | 37 | 0.0 | 2.0 | 0.00 | 0.00 | 0.00 | 62 | 1011.6 |
| 20260503002942 | 42 | 30 | 0.0 | 2.0 | 0.00 | 0.00 | 0.00 | 61 | 1011.7 |
| 20260503002443 | 42 | 323 | 0.0 | 3.0 | 0.00 | 0.00 | 0.00 | 60 | 1011.6 |
| 20260503001940 | 42 | 25 | 1.0 | 3.0 | 0.00 | 0.00 | 0.00 | 59 | 1011.6 |
| 20260503001437 | 43 | 27 | 0.0 | 2.0 | 0.00 | 0.00 | 0.00 | 59 | 1011.7 |
| 20260503001205 | 43 | 8 | 1.0 | 3.0 | 0.00 | 0.00 | 0.00 | 59 | 1011.8 |
| 20260503000438 | 43 | 0 | 0.0 | 4.0 | 0.00 | 0.00 | 0.00 | 59 | 1011.7 |
| 20260502235938 | 43 | 24 | 1.0 | 5.0 | 0.00 | 0.00 | 0.00 | 58 | 1011.9 |
| 20260502235442 | 43 | 336 | 2.0 | 5.0 | 0.00 | 0.00 | 0.00 | 57 | 1011.9 |
| 20260502235205 | 43 | 2 | 3.0 | 7.0 | 0.00 | 0.00 | 0.00 | 59 | 1011.9 |
| 20260502234700 | 43 | 337 | 1.0 | 7.0 | 0.00 | 0.00 | 0.00 | 60 | 1011.9 |
| 20260502233935 | 44 | 338 | 2.0 | 6.0 | 0.00 | 0.00 | 0.00 | 60 | 1011.9 |
| 20260502233434 | 44 | 12 | 3.0 | 6.0 | 0.00 | 0.00 | 0.00 | 60 | 1011.8 |
| 20260502233204 | 44 | 348 | 2.0 | 6.0 | 0.00 | 0.00 | 0.00 | 61 | 1011.9 |
| 20260502232434 | 43 | 316 | 3.0 | 5.0 | 0.00 | 0.00 | 0.00 | 64 | 1011.8 |
| 20260502231934 | 43 | 7 | 3.0 | 4.0 | 0.00 | 0.00 | 0.00 | 61 | 1011.9 |
| 20260502231435 | 44 | 25 | 2.0 | 5.0 | 0.00 | 0.00 | 0.00 | 62 | 1011.9 |
| 20260502230933 | 44 | 350 | 1.0 | 7.0 | 0.00 | 0.00 | 0.00 | 61 | 1012.0 |
| 20260502230433 | 44 | 354 | 2.0 | 7.0 | 0.00 | 0.00 | 0.00 | 59 | 1011.9 |
| 20260502225933 | 44 | 1 | 2.0 | 6.0 | 0.00 | 0.00 | 0.00 | 59 | 1012.0 |
| 20260502225434 | 44 | 345 | 2.0 | 9.0 | 0.00 | 0.00 | 0.00 | 61 | 1012.0 |
| 20260502224932 | 44 | 351 | 2.0 | 9.0 | 0.00 | 0.00 | 0.00 | 62 | 1012.0 |
| 20260502224703 | 44 | 331 | 4.0 | 7.0 | 0.00 | 0.00 | 0.00 | 61 | 1012.1 |
| 20260502223432 | 45 | 345 | 3.0 | 7.0 | 0.00 | 0.00 | 0.00 | 59 | 1012.1 |
| 20260502222930 | 45 | 348 | 2.0 | 7.0 | 0.00 | 0.00 | 0.00 | 57 | 1012.1 |
| 20260502222429 | 45 | 354 | 3.0 | 6.0 | 0.00 | 0.00 | 0.00 | 54 | 1012.1 |
| 20260502221929 | 45 | 1 | 3.0 | 6.0 | 0.00 | 0.00 | 0.00 | 56 | 1012.2 |
| 20260502221429 | 46 | 41 | 2.0 | 6.0 | 0.00 | 0.00 | 0.00 | 52 | 1012.2 |
| 20260502221224 | 46 | 340 | 3.0 | 7.0 | 0.00 | 0.00 | 0.00 | 51 | 1012.2 |
| 20260502220547 | 46 | 18 | 3.0 | 7.0 | 0.00 | 0.00 | 0.00 | 50 | 1012.2 |
| 20260502215926 | 47 | 313 | 4.0 | 10.0 | 0.00 | 0.00 | 0.00 | 48 | 1012.2 |
| 20260502215427 | 47 | 289 | 3.0 | 10.0 | 0.00 | 0.00 | 0.00 | 50 | 1012.2 |
| 20260502214926 | 47 | 12 | 4.0 | 7.0 | 0.00 | 0.00 | 0.00 | 52 | 1012.2 |
| 20260502214427 | 47 | 0 | 2.0 | 6.0 | 0.00 | 0.00 | 0.00 | 54 | 1012.2 |
| 20260502213926 | 47 | 320 | 2.0 | 6.0 | 0.00 | 0.00 | 0.00 | 52 | 1012.2 |
| 20260502213426 | 47 | 324 | 2.0 | 7.0 | 0.00 | 0.00 | 0.00 | 51 | 1012.2 |
| 20260502212925 | 47 | 314 | 3.0 | 7.0 | 0.00 | 0.00 | 0.00 | 53 | 1012.3 |
| 20260502212424 | 46 | 347 | 4.0 | 7.0 | 0.00 | 0.00 | 0.00 | 54 | 1012.3 |
| 20260502211921 | 46 | 337 | 4.0 | 7.0 | 0.00 | 0.00 | 0.00 | 54 | 1012.2 |
| 20260502211423 | 47 | 259 | 3.0 | 9.0 | 0.00 | 0.00 | 0.00 | 51 | 1012.3 |
| 20260502210921 | 47 | 310 | 4.0 | 9.0 | 0.00 | 0.00 | 0.00 | 52 | 1012.4 |
| 20260502210648 | 46 | 292 | 3.0 | 10.0 | 0.00 | 0.00 | 0.00 | 55 | 1012.4 |
| 20260502205421 | 47 | 1 | 3.0 | 9.0 | 0.00 | 0.00 | 0.00 | 52 | 1012.5 |
| 20260502204920 | 47 | 334 | 4.0 | 9.0 | 0.00 | 0.00 | 0.00 | 52 | 1012.4 |
| 20260502204420 | 47 | 21 | 3.0 | 10.0 | 0.00 | 0.00 | 0.00 | 49 | 1012.5 |
| 20260502203920 | 47 | 0 | 5.0 | 10.0 | 0.00 | 0.00 | 0.00 | 50 | 1012.5 |
| 20260502203419 | 47 | 44 | 3.0 | 10.0 | 0.00 | 0.00 | 0.00 | 50 | 1012.6 |
| 20260502202916 | 47 | 1 | 3.0 | 10.0 | 0.00 | 0.00 | 0.00 | 49 | 1012.5 |
| 20260502202416 | 48 | 343 | 4.0 | 11.0 | 0.00 | 0.00 | 0.00 | 49 | 1012.6 |
| 20260502201914 | 47 | 316 | 4.0 | 11.0 | 0.00 | 0.00 | 0.00 | 48 | 1012.7 |
| 20260502201411 | 47 | 354 | 2.0 | 9.0 | 0.00 | 0.00 | 0.00 | 53 | 1012.7 |
| 20260502200908 | 47 | 307 | 4.0 | 10.0 | 0.00 | 0.00 | 0.00 | 55 | 1012.7 |
| 20260502200408 | 47 | 11 | 3.0 | 10.0 | 0.00 | 0.00 | 0.00 | 55 | 1012.7 |
| 20260502195909 | 47 | 34 | 4.0 | 9.0 | 0.00 | 0.00 | 0.00 | 54 | 1012.9 |
| 20260502195407 | 47 | 14 | 3.0 | 9.0 | 0.00 | 0.00 | 0.00 | 53 | 1012.9 |
| 20260502194908 | 47 | 350 | 5.0 | 9.0 | 0.00 | 0.00 | 0.00 | 50 | 1013.0 |
| 20260502194637 | 47 | 51 | 5.0 | 11.0 | 0.00 | 0.00 | 0.00 | 48 | 1013.1 |
| 20260502193909 | 48 | 358 | 5.0 | 11.0 | 0.00 | 0.00 | 0.00 | 48 | 1013.1 |
| 20260502193406 | 47 | 341 | 5.0 | 11.0 | 0.00 | 0.00 | 0.00 | 49 | 1013.1 |
| 20260502192905 | 47 | 317 | 5.0 | 13.0 | 0.00 | 0.00 | 0.00 | 50 | 1013.2 |
| 20260502192405 | 47 | 333 | 5.0 | 13.0 | 0.00 | 0.00 | 0.00 | 50 | 1013.3 |
| 20260502191905 | 47 | 357 | 6.0 | 12.0 | 0.00 | 0.00 | 0.00 | 51 | 1013.2 |
| 20260502191636 | 47 | 5 | 4.0 | 12.0 | 0.00 | 0.00 | 0.00 | 52 | 1013.3 |
| 20260502190905 | 47 | 327 | 6.0 | 10.0 | 0.00 | 0.00 | 0.00 | 54 | 1013.3 |
| 20260502190403 | 46 | 327 | 6.0 | 10.0 | 0.00 | 0.00 | 0.00 | 54 | 1013.3 |
| 20260502185903 | 46 | 5 | 6.0 | 10.0 | 0.00 | 0.00 | 0.00 | 52 | 1013.4 |
| 20260502185404 | 46 | 5 | 4.0 | 11.0 | 0.00 | 0.00 | 0.00 | 55 | 1013.4 |
| 20260502184923 | 45 | 85 | 4.0 | 11.0 | 0.00 | 0.00 | 0.00 | 53 | 1013.4 |
| 20260502184406 | 46 | 28 | 3.0 | 10.0 | 0.00 | 0.00 | 0.00 | 55 | 1013.5 |
| 20260502183905 | 45 | 4 | 6.0 | 12.0 | 0.00 | 0.00 | 0.00 | 52 | 1013.5 |
| 20260502183404 | 46 | 61 | 4.0 | 12.0 | 0.00 | 0.00 | 0.00 | 51 | 1013.6 |
| 20260502182904 | 46 | 340 | 5.0 | 12.0 | 0.00 | 0.00 | 0.00 | 51 | 1013.6 |
| 20260502182642 | 46 | 18 | 4.0 | 12.0 | 0.00 | 0.00 | 0.00 | 54 | 1013.5 |
| 20260502181906 | 45 | 344 | 4.0 | 12.0 | 0.00 | 0.00 | 0.00 | 54 | 1013.6 |
| 20260502181403 | 46 | 358 | 5.0 | 11.0 | 0.00 | 0.00 | 0.00 | 54 | 1013.7 |
| 20260502180904 | 46 | 24 | 4.0 | 9.0 | 0.00 | 0.00 | 0.00 | 59 | 1013.7 |
| 20260502180404 | 45 | 40 | 1.0 | 7.0 | 0.00 | 0.00 | 0.00 | 62 | 1013.6 |
| 20260502163849 | 44 | 25 | 2.0 | 9.0 | 0.00 | 0.00 | 0.00 | 74 | 1014.3 |
| 20260502163349 | 44 | 341 | 2.0 | 7.0 | 0.00 | 0.00 | 0.00 | 76 | 1014.3 |
| 20260502162848 | 44 | 5 | 2.0 | 7.0 | 0.00 | 0.00 | 0.00 | 75 | 1014.3 |
| 20260502162414 | 43 | 24 | 4.0 | 9.0 | 0.00 | 0.00 | 0.00 | 74 | 1014.4 |
| 20260502161846 | 43 | 323 | 4.0 | 9.0 | 0.00 | 0.00 | 0.00 | 75 | 1014.4 |
| 20260502161346 | 44 | 305 | 3.0 | 9.0 | 0.00 | 0.00 | 0.00 | 75 | 1014.4 |
| 20260502160847 | 43 | 333 | 4.0 | 9.0 | 0.00 | 0.00 | 0.00 | 75 | 1014.4 |
| 20260502160615 | 42 | 17 | 3.0 | 11.0 | 0.00 | 0.00 | 0.00 | 77 | 1014.4 |
| 20260502152333 | 41 | 353 | 4.0 | 9.0 | 0.00 | 0.00 | 0.00 | 77 | 1014.5 |
| 20260502151833 | 42 | 7 | 4.0 | 9.0 | 0.00 | 0.00 | 0.00 | 78 | 1014.6 |
| 20260502151333 | 41 | 38 | 3.0 | 9.0 | 0.00 | 0.00 | 0.00 | 79 | 1014.5 |
| 20260502150834 | 41 | 336 | 3.0 | 10.0 | 0.00 | 0.00 | 0.00 | 80 | 1014.5 |
| 20260502150334 | 41 | 11 | 6.0 | 10.0 | 0.00 | 0.00 | 0.00 | 78 | 1014.6 |
| 20260502130327 | 39 | 283 | 5.0 | 11.0 | 0.00 | 0.00 | 0.00 | 74 | 1015.4 |
| 20260502123326 | 38 | 331 | 3.0 | 12.0 | 0.00 | 0.00 | 0.00 | 75 | 1015.5 |
| 20260502122551 | 37 | 329 | 3.0 | 10.0 | 0.00 | 0.00 | 0.00 | 76 | 1015.4 |
| 20260502121824 | 37 | 305 | 4.0 | 11.0 | 0.00 | 0.00 | 0.00 | 77 | 1015.5 |
| 20260502121325 | 37 | 281 | 4.0 | 11.0 | 0.00 | 0.00 | 0.00 | 77 | 1015.4 |
| 20260502120825 | 37 | 313 | 3.0 | 11.0 | 0.00 | 0.00 | 0.00 | 77 | 1015.4 |
| 20260502120326 | 36 | 334 | 4.0 | 12.0 | 0.00 | 0.00 | 0.00 | 77 | 1015.4 |
| 20260502115825 | 36 | 305 | 5.0 | 12.0 | 0.00 | 0.00 | 0.00 | 79 | 1015.4 |
| 20260502115324 | 35 | 282 | 4.0 | 9.0 | 0.00 | 0.00 | 0.00 | 79 | 1015.4 |
| 20260502115054 | 35 | 283 | 4.0 | 9.0 | 0.00 | 0.00 | 0.00 | 80 | 1015.3 |
| 20260502114547 | 35 | 279 | 4.0 | 9.0 | 0.00 | 0.00 | 0.00 | 80 | 1015.4 |
| 20260502113823 | 34 | 295 | 4.0 | 9.0 | 0.00 | 0.00 | 0.00 | 81 | 1015.4 |
| 20260502113323 | 34 | 288 | 4.0 | 9.0 | 0.00 | 0.00 | 0.00 | 82 | 1015.3 |
| 20260502112823 | 33 | 331 | 3.0 | 9.0 | 0.00 | 0.00 | 0.00 | 82 | 1015.2 |
| 20260502112323 | 33 | 319 | 3.0 | 9.0 | 0.00 | 0.00 | 0.00 | 83 | 1015.2 |
| 20260502111822 | 32 | 309 | 4.0 | 9.0 | 0.00 | 0.00 | 0.00 | 83 | 1015.1 |
| 20260502111547 | 32 | 288 | 5.0 | 7.0 | 0.00 | 0.00 | 0.00 | 83 | 1015.1 |
| 20260502110822 | 32 | 290 | 4.0 | 7.0 | 0.00 | 0.00 | 0.00 | 83 | 1015.1 |
| 20260502110321 | 32 | 300 | 4.0 | 7.0 | 0.00 | 0.00 | 0.00 | 83 | 1015.1 |
| 20260502105823 | 32 | 264 | 4.0 | 7.0 | 0.00 | 0.00 | 0.00 | 83 | 1015.2 |
| 20260502105322 | 32 | 298 | 4.0 | 7.0 | 0.00 | 0.00 | 0.00 | 83 | 1015.1 |
| 20260502104822 | 32 | 279 | 4.0 | 9.0 | 0.00 | 0.00 | 0.00 | 83 | 1015.1 |
| 20260502104546 | 32 | 261 | 5.0 | 9.0 | 0.00 | 0.00 | 0.00 | 82 | 1015.1 |
| 20260502103822 | 32 | 272 | 3.0 | 11.0 | 0.00 | 0.00 | 0.00 | 82 | 1015.1 |
| 20260502103321 | 32 | 283 | 4.0 | 11.0 | 0.00 | 0.00 | 0.00 | 83 | 1015.1 |
| 20260502102821 | 32 | 282 | 4.0 | 11.0 | 0.00 | 0.00 | 0.00 | 83 | 1015.1 |
| 20260502101824 | 32 | 269 | 5.0 | 9.0 | 0.00 | 0.00 | 0.00 | 83 | 1015.1 |
| 20260502101323 | 32 | 264 | 4.0 | 9.0 | 0.00 | 0.00 | 0.00 | 83 | 1015.2 |
| 20260502100823 | 32 | 281 | 4.0 | 9.0 | 0.00 | 0.00 | 0.00 | 83 | 1015.1 |
| 20260502100321 | 32 | 265 | 4.0 | 9.0 | 0.00 | 0.00 | 0.00 | 83 | 1015.2 |
| 20260502091313 | 32 | 290 | 4.0 | 6.0 | 0.00 | 0.01 | 0.00 | 83 | 1014.8 |
| 20260502090812 | 32 | 265 | 3.0 | 7.0 | 0.00 | 0.01 | 0.00 | 83 | 1014.9 |
| 20260502090312 | 32 | 269 | 4.0 | 7.0 | 0.00 | 0.01 | 0.00 | 83 | 1014.8 |
| 20260502071250 | 33 | 275 | 2.0 | 4.0 | 0.00 | 0.01 | 0.00 | 80 | 1014.8 |
| 20260502070745 | 33 | 276 | 2.0 | 6.0 | 0.00 | 0.01 | 0.00 | 80 | 1014.8 |
| 20260502070249 | 34 | 274 | 3.0 | 6.0 | 0.00 | 0.01 | 0.00 | 79 | 1014.8 |
| 20260502065733 | 34 | 264 | 4.0 | 6.0 | 0.00 | 0.01 | 0.00 | 79 | 1014.8 |
| 20260502065233 | 34 | 290 | 3.0 | 6.0 | 0.00 | 0.01 | 0.00 | 79 | 1014.8 |
| 20260502064733 | 34 | 268 | 3.0 | 5.0 | 0.00 | 0.01 | 0.00 | 78 | 1014.9 |
| 20260502064233 | 35 | 281 | 3.0 | 5.0 | 0.00 | 0.01 | 0.00 | 78 | 1014.9 |
| 20260502063732 | 35 | 279 | 2.0 | 5.0 | 0.00 | 0.01 | 0.00 | 78 | 1014.9 |
| 20260502063232 | 35 | 307 | 2.0 | 4.0 | 0.00 | 0.01 | 0.00 | 77 | 1015.1 |
| 20260502063006 | 35 | 305 | 2.0 | 5.0 | 0.00 | 0.01 | 0.00 | 78 | 1015.1 |
| 20260502062235 | 35 | 293 | 2.0 | 6.0 | 0.00 | 0.01 | 0.00 | 77 | 1015.1 |
| 20260502061731 | 35 | 323 | 2.0 | 6.0 | 0.00 | 0.01 | 0.00 | 77 | 1015.2 |
| 20260502061232 | 35 | 292 | 3.0 | 7.0 | 0.00 | 0.01 | 0.00 | 77 | 1014.9 |
| 20260502060729 | 35 | 282 | 3.0 | 7.0 | 0.00 | 0.01 | 0.00 | 76 | 1015.1 |
| 20260502060234 | 36 | 307 | 3.0 | 10.0 | 0.00 | 0.01 | 0.00 | 75 | 1015.1 |
| 20260502055544 | 36 | 298 | 4.0 | 10.0 | 0.00 | 0.01 | 0.00 | 75 | 1014.9 |
| 20260502055043 | 36 | 295 | 5.0 | 9.0 | 0.00 | 0.01 | 0.00 | 76 | 1014.9 |
| 20260502054541 | 36 | 278 | 5.0 | 9.0 | 0.00 | 0.01 | 0.00 | 76 | 1014.9 |
| 20260502054042 | 36 | 337 | 4.0 | 10.0 | 0.00 | 0.01 | 0.00 | 76 | 1014.9 |
| 20260502053542 | 36 | 323 | 6.0 | 11.0 | 0.00 | 0.01 | 0.00 | 76 | 1015.1 |
| 20260502053046 | 36 | 357 | 4.0 | 11.0 | 0.00 | 0.01 | 0.00 | 76 | 1014.9 |
| 20260502052538 | 36 | 347 | 3.0 | 11.0 | 0.00 | 0.01 | 0.00 | 76 | 1015.1 |
| 20260502052039 | 36 | 320 | 4.0 | 11.0 | 0.00 | 0.01 | 0.00 | 76 | 1014.9 |
| 20260502051533 | 36 | 300 | 4.0 | 9.0 | 0.00 | 0.01 | 0.00 | 76 | 1015.1 |
| 20260502051033 | 37 | 345 | 3.0 | 9.0 | 0.00 | 0.01 | 0.00 | 76 | 1015.1 |
| 20260502050759 | 37 | 303 | 4.0 | 9.0 | 0.00 | 0.01 | 0.00 | 76 | 1015.1 |
| 20260502050252 | 37 | 348 | 6.0 | 11.0 | 0.00 | 0.01 | 0.00 | 76 | 1014.9 |
| 20260502045528 | 37 | 24 | 3.0 | 11.0 | 0.00 | 0.01 | 0.00 | 76 | 1014.9 |
| 20260502045025 | 37 | 2 | 5.0 | 10.0 | 0.00 | 0.01 | 0.00 | 77 | 1014.9 |
| 20260502044521 | 37 | 333 | 4.0 | 10.0 | 0.00 | 0.01 | 0.00 | 76 | 1015.1 |
| 20260502044020 | 37 | 313 | 6.0 | 14.0 | 0.00 | 0.01 | 0.00 | 76 | 1014.9 |
| 20260502043519 | 37 | 306 | 5.0 | 14.0 | 0.00 | 0.01 | 0.00 | 76 | 1014.9 |
| 20260502043023 | 37 | 330 | 4.0 | 11.0 | 0.00 | 0.01 | 0.00 | 76 | 1014.9 |
| 20260502042513 | 37 | 319 | 4.0 | 10.0 | 0.00 | 0.01 | 0.00 | 76 | 1014.9 |
| 20260502042247 | 37 | 338 | 5.0 | 11.0 | 0.00 | 0.01 | 0.00 | 75 | 1015.1 |
| 20260502041743 | 37 | 319 | 5.0 | 11.0 | 0.00 | 0.01 | 0.00 | 75 | 1014.9 |
| 20260502041239 | 37 | 37 | 4.0 | 9.0 | 0.00 | 0.01 | 0.00 | 75 | 1015.1 |
| 20260502040513 | 37 | 312 | 4.0 | 10.0 | 0.00 | 0.01 | 0.00 | 75 | 1015.1 |
| 20260502040240 | 37 | 0 | 4.0 | 10.0 | 0.00 | 0.01 | 0.00 | 76 | 1015.1 |
| 20260502035511 | 37 | 330 | 3.0 | 10.0 | 0.00 | 0.01 | 0.01 | 76 | 1015.1 |
| 20260502035011 | 37 | 338 | 4.0 | 10.0 | 0.00 | 0.01 | 0.01 | 76 | 1015.1 |
| 20260502034514 | 37 | 348 | 3.0 | 9.0 | 0.00 | 0.01 | 0.01 | 76 | 1015.1 |
| 20260502034011 | 37 | 5 | 5.0 | 9.0 | 0.00 | 0.01 | 0.01 | 76 | 1015.1 |
| 20260502033511 | 37 | 330 | 4.0 | 7.0 | 0.00 | 0.01 | 0.01 | 76 | 1015.1 |
| 20260502033233 | 37 | 296 | 3.0 | 9.0 | 0.00 | 0.01 | 0.01 | 76 | 1015.1 |
| 20260502032509 | 37 | 336 | 5.0 | 9.0 | 0.00 | 0.01 | 0.01 | 77 | 1015.1 |
| 20260502032009 | 37 | 341 | 4.0 | 9.0 | 0.00 | 0.01 | 0.01 | 78 | 1015.1 |
| 20260502031733 | 37 | 340 | 4.0 | 9.0 | 0.00 | 0.01 | 0.01 | 78 | 1015.2 |